Regional Weather Roundup
Issued by NWS Newport/Morehead, NC

Current Version | Previous Version | Graphics & Text | Print | Product List | Glossary Off
Versions: 1 2 3 4 5 6 7 8 9 10 11 12 13 14 15 16 17 18 19 20 21 22 23 24 25 26 27 28 29 30 31 32 33 34 35 36 37 38 39 40 41 42 43 44 45 46 47 48 49 50
183 ASUS42 KMHX 251425 RWRMHX WEATHER ROUNDUP FOR EASTERN NORTH CAROLINA NATIONAL WEATHER SERVICE NEWPORT/MOREHEAD CITY NC 1000 AM EDT WED APR 25 2018 NOTE: "FAIR" INDICATES FEW OR NO CLOUDS BELOW 12,000 FEET WITH NO SIGNIFICANT WEATHER AND/OR OBSTRUCTIONS TO VISIBILITY NCZ015>017-031-032-045>047-102-103-251500- NORTH COAST CITY SKY/WX TMP DP RH WIND PRES REMARKS EDENTON NOT AVBL ELIZABETH CITY FAIR 68 64 87 SW9 29.75S KITTY HAWK FAIR 68 61 76 MISG 29.74F MANTEO FAIR 68 61 77 S10 29.76F $$ NCZ045>047-081-094-103-104-251500- CENTRAL COAST CITY SKY/WX TMP DP RH WIND PRES REMARKS FRISCO FAIR 70 63 78 SW12 29.77F $$ NCZ095-097-098-100-101-251500- SOUTHERN COAST CITY SKY/WX TMP DP RH WIND PRES REMARKS BEAUFORT FAIR 66 61 84 S10 29.79S CEDAR ISLAND NOT AVBL JACKSONVILLE FAIR 69 61 75 S5 29.75F PINEY ISLAND NOT AVBL WILMINGTON FAIR 69 58 67 SW9 29.76F $$ NCZ011>013-027>030-043-044-078>080-089-090>093-098-251500- COASTAL PLAIN CITY SKY/WX TMP DP RH WIND PRES REMARKS AHOSKIE CLOUDY 62 62 100 CALM 29.75S CLINTON CLOUDY 64 61 91 SW9 29.77R ELIZABETHTOWN CLOUDY 66 58 75 MISG 29.77R GOLDSBORO PTSUNNY 66 60 80 S8 29.72F GREENVILLE PTSUNNY 68 61 77 S7 29.77S HAVELOCK MOSUNNY 71 63 75 SW9 29.77F KENANSVILLE FAIR 68 61 77 S8 29.75S KINSTON PTSUNNY 68 61 77 SW10 29.75F NEW BERN FAIR 68 61 78 VRB7 29.77F RICHLANDS PTSUNNY 70 61 73 S10 29.77S ROCKY MOUNT CLOUDY 63 60 90 SW6 29.74S WASHINGTON PTSUNNY 68 61 78 SW5 29.75S WHITEVILLE FAIR 68 57 69 W8 29.77S $$ AMZ130-135-150-152-154-156-158-170-250-252-270-ANZ085-086-088-633-658-670-251500- MARINE OBSERVATIONS STATION/POSITION TIME TEMP WIND PRES WAVE SWELL AIR SEA DIR/SP/G HT/PER HT/PER (UTC) (F) (DEG/KT/KT) (MB) (FT/S) (FT/S) CHESAPEAKE LIGHT NOT AVBL 64 E VA BEACH 1350 55 49 170/ 8/ 10 1008.1 12/11 11/11 DUCK 1400 65 50 190/ 7/ 9 1006.8 2 E DUCK 1400 52 N/A 7/11 3/11 OREGON INLET 1400 61 54 190/ 7/ 8 1007.6 13E OREGON INLT 1348 53 N/A 10/11 10/11 HATTERAS CG 1400 69 64 200/ 5/ 9 1007.9 DIAMOND BUOY 1410 71 70 210/ 12/ 14 1008.5 CAPE LOOKOUT 1400 170/ 10/ 11 1009.2 BEAUFORT LAB 1400 65 62 190/ 8/ 10 1008.8 30 SE NEW RVR IN 1408 66 67 220/ 12/ 16 1006.2 30 SE NEW RVR IN 1400 67 N/A 7/11 3/11 27 SE WRIGHTSVLE 1408 65 66 220/ 12/ 17 1008.8 5 SE WRIGHTSVLE 1408 64 62 220/ 6/ 10 1007.6 225 S CAPE HAT 1410 72 73 200/ 16/ 19 1010.4 41 SE CHARLESTON 1400 69 260/ 14/ 17 1010.6 $$

USA.gov is the U.S. government's official web portal to all federal, state and local government web resources and services.